Weather History for Dayton, OH

Change the Weather History Date:

Tuesday, June 25, 2013

  Actual Average Record
Temperature  
Mean Temperature 80 °F 73 °F  
Max Temperature 90 °F 83 °F 102 °F (1988)
Min Temperature 69 °F 63 °F 42 °F (1979)
Degree Days  
Heating Degree Days 0 0  
Month to date heating degree days 11 22  
Since 1 June heating degree days 11 22  
Since 1 July heating degree days 5457 5642  
Cooling Degree Days 15 8  
Month to date cooling degree days 165 147  
Year to date cooling degree days 296 217  
Since 1 June cooling degree days 165 147  
Growing Degree Days 30 (Base 50)    
Moisture  
Dew Point 70 °F    
Average Humidity 73    
Maximum Humidity 90    
Minimum Humidity 55    
Precipitation  
Precipitation T in 0.13 in 1.98 in (1938)
Month to date precipitation 2.56 3.49  
Year to date precipitation 16.86 20.53  
Snow  
Snow 0.00 in 0.00 in 0.00 in ()
Month to date snowfall 0.0 0.0  
Since 1 June snowfall 0.0 0.0  
Since 1 July snowfall 36.3 23.3  
Snow Depth 0.00 in    
Sea Level Pressure  
Sea Level Pressure 29.98 in    
Wind  
Wind Speed 11 mph (SW)    
Max Wind Speed 20 mph    
Max Gust Speed 25 mph    
Visibility 8 miles    
Events Rain , Thunderstorm    
T = Trace of Precipitation, MM = Missing Value Source: NWS Daily Summary

Daily Weather History Graph

Daily Weather History Graph

Search for Another Location

Airport:

Trip Planner

Search our weather history database for the weather conditions in past years. The results will help you decide how hot, cold, wet, or windy it might be!

Date:

Astronomy

Jun. 25, 2013 Rise Set
Actual Time 6:09 AM EDT 9:09 PM EDT
Civil Twilight 5:36 AM EDT 9:42 PM EDT
Nautical Twilight 4:55 AM EDT 10:23 PM EDT
Astronomical Twilight 4:06 AM EDT 11:12 PM EDT
Moon 10:54 PM EDT (6/25) 8:48 AM EDT (6/25)
Length of Visible Light 16h 05m
Length of Day
14h 59m
Waning Gibbous, 93% of the Moon is Illuminated
Jun 25
Waning Gibbous
Jun 30
Last Quarter
Jul 8
New
Jul 15
First Quarter
Jul 22
Full

Hourly Weather History & Observations

Time (EDT) Temp. Heat Index Dew Point Humidity Pressure Visibility Wind Dir Wind Speed Gust Speed Precip Events Conditions
12:56 AM 73.0 °F - 68.0 °F 84% 30.05 in 9.0 mi SE 5.8 mph - N/A   Scattered Clouds
1:56 AM 73.0 °F - 68.0 °F 84% 30.01 in 9.0 mi South 8.1 mph - N/A   Scattered Clouds
2:56 AM 71.1 °F - 68.0 °F 90% 30.03 in 5.0 mi SW 9.2 mph - N/A   Partly Cloudy
3:56 AM 71.1 °F - 68.0 °F 90% 30.02 in 4.0 mi SSW 6.9 mph - N/A   Scattered Clouds
4:21 AM 69.8 °F - 68.0 °F 94% 30.05 in 4.0 mi SW 8.1 mph - N/A   Partly Cloudy
4:56 AM 71.1 °F - 68.0 °F 90% 30.03 in 4.0 mi SW 10.4 mph - N/A   Scattered Clouds
5:56 AM 70.0 °F - 66.9 °F 90% 30.04 in 4.0 mi SW 9.2 mph - N/A   Mostly Cloudy
6:56 AM 70.0 °F - 66.9 °F 90% 30.04 in 3.0 mi SW 6.9 mph - N/A   Scattered Clouds
7:56 AM 73.0 °F - 66.9 °F 81% 30.04 in 6.0 mi SW 8.1 mph - N/A   Haze
8:56 AM 75.9 °F - 68.0 °F 76% 30.04 in 8.0 mi SW 10.4 mph 18.4 mph N/A   Partly Cloudy
9:56 AM 80.1 °F 83.2 °F 70.0 °F 71% 30.04 in 9.0 mi SW 9.2 mph - N/A   Clear
10:56 AM 84.0 °F 89.0 °F 71.1 °F 65% 30.02 in 10.0 mi WSW 12.7 mph - N/A   Clear
11:56 AM 86.0 °F 92.2 °F 72.0 °F 63% 30.03 in 10.0 mi WSW 12.7 mph - N/A   Scattered Clouds
12:56 PM 88.0 °F 94.7 °F 72.0 °F 59% 30.02 in 10.0 mi WSW 16.1 mph - N/A   Scattered Clouds
1:38 PM 84.2 °F 89.6 °F 71.6 °F 66% 30.03 in 9.0 mi SW 15.0 mph 19.6 mph N/A Thunderstorm Thunderstorm
1:56 PM 87.1 °F 93.6 °F 72.0 °F 61% 29.99 in 10.0 mi WSW 13.8 mph - N/A Thunderstorm Thunderstorm
2:18 PM 87.8 °F 93.8 °F 71.6 °F 58% 30.01 in 10.0 mi WSW 13.8 mph - N/A   Mostly Cloudy
2:56 PM 86.0 °F 91.5 °F 71.1 °F 61% 29.97 in 10.0 mi West 15.0 mph - N/A Thunderstorm Thunderstorm
3:20 PM 86.0 °F 91.8 °F 71.6 °F 62% 30.00 in 10.0 mi WSW 12.7 mph - N/A   Scattered Clouds
3:56 PM 87.1 °F 94.5 °F 73.0 °F 63% 29.96 in 10.0 mi WSW 9.2 mph - N/A   Mostly Cloudy
4:35 PM 87.8 °F 93.8 °F 71.6 °F 58% 29.98 in 10.0 mi WSW 10.4 mph - N/A Thunderstorm Thunderstorm
4:56 PM 86.0 °F 91.5 °F 71.1 °F 61% 29.94 in 10.0 mi WSW 13.8 mph - 0.00 in Rain , Thunderstorm Light Thunderstorms and Rain
5:14 PM 89.6 °F 96.2 °F 71.6 °F 55% 29.96 in 10.0 mi WSW 17.3 mph - 0.00 in   Scattered Clouds
5:56 PM 88.0 °F 93.8 °F 71.1 °F 57% 29.91 in 10.0 mi WSW 13.8 mph - 0.00 in   Partly Cloudy
6:56 PM 88.0 °F 92.1 °F 69.1 °F 53% 29.89 in 10.0 mi WSW 16.1 mph 21.9 mph N/A   Partly Cloudy
7:56 PM 86.0 °F 90.7 °F 70.0 °F 59% 29.89 in 10.0 mi SW 13.8 mph - N/A   Scattered Clouds
8:56 PM 84.0 °F 87.8 °F 69.1 °F 61% 29.88 in 10.0 mi SW 9.2 mph - N/A   Partly Cloudy
9:56 PM 81.0 °F 84.4 °F 70.0 °F 69% 29.90 in 10.0 mi SW 8.1 mph - N/A   Scattered Clouds
10:56 PM 81.0 °F 84.4 °F 70.0 °F 69% 29.91 in 10.0 mi SW 8.1 mph - N/A   Scattered Clouds
11:42 PM 80.6 °F 84.6 °F 71.6 °F 74% 29.94 in 10.0 mi SW 10.4 mph - N/A Thunderstorm Thunderstorm
11:56 PM 80.1 °F 83.6 °F 71.1 °F 74% 29.91 in 10.0 mi SSW 8.1 mph - N/A Thunderstorm Thunderstorm